Location: Newark
(48.6461°N, 4.3644°W)
Time: 20:54:18
(UTC+00:00)

STARLINK 1061 - Pass Details

Date: 13 December 2019
Orbit: 548 x 551 km, 53.0° (Epoch: 21 January)

Event Time Altitude Azimuth Distance (km) Brightness Sun altitude
Exits shadow 05:11:16 20° 168° (SSE) 1,339 5.7 -26.9°
Drops below altitude 10° 05:12:55 10° 155° (SSE) 1,886 6.7 -26.6°
Sets 05:15:18 0° 146° (SE) 2,784 7.8 -26.2°
